Regional Weather Roundup
Issued by NWS Albany, NY

Home | Current Version | Previous Version | Text Only | Print | Product List | Glossary On
Versions: 1 2 3 4 5 6 7 8 9 10 11 12 13 14 15 16 17 18 19 20 21 22 23 24 25 26 27 28 29 30 31 32 33 34 35 36 37 38 39 40 41 42 43 44 45 46 47 48 49
000
ASUS41 KALY 062010
RWRALY

NEW YORK STATE HOURLY WEATHER ROUNDUP
NATIONAL WEATHER SERVICE ALBANY NY
300 PM EST FRI MAR 06 2015

NOTE: "FAIR" INDICATES FEW OR NO CLOUDS BELOW 12,000 FEET WITH NO
SIGNIFICANT WEATHER AND/OR NO OBSTRUCTIONS TO VISIBILITY.

NYZ032-033-038>043-046>054-057>066-NYZ062>081-062100-
EAST


CITY           SKY/WX    TMP DP  RH WIND       PRES   REMARKS
ALBANY         MOSUNNY   24  -2  32 E3        30.41F
GLENS FALLS    SUNNY     22   1  40 SE14      30.38F WCI   9
POUGHKEEPSIE   SUNNY     26  -1  31 W3        30.43F
NEWBURGH       SUNNY     23   0  36 SW7       30.42F WCI  15
MONTGOMERY     SUNNY     24  -2  32 S9        30.40F WCI  14
WHITE PLAINS   SUNNY     25  -2  31 NW3       30.41F
ISLIP          SUNNY     26  -4  27 CALM      30.43F
NEW YORK CITY  SUNNY     27   5  39 CALM      30.45F
CENTRAL PARK   SUNNY     25   3  38 CALM      30.47F
$$

NYZ005>009-017-018-044>046-055-056-062100-
CENTRAL


CITY           SKY/WX    TMP DP  RH WIND       PRES   REMARKS
FULTON         SUNNY     20   3  48 SW12      30.39F WCI   8
SYRACUSE       MOSUNNY   20   3  48 W12       30.41F WCI   8
ROME           SUNNY     18   3  52 SW7       30.42F WCI   9
ELMIRA         SUNNY     23  -1  35 SW6       30.35F WCI  16
BINGHAMTON     SUNNY     18  -3  39 W7        30.29F WCI   9
MONTICELLO     SUNNY     21   0  39 NW7       30.33F WCI  13
$$

NYZ026>034-041>043-062100-
NORTH


CITY           SKY/WX    TMP DP  RH WIND       PRES   REMARKS
WATERTOWN      SUNNY     20   2  45 SW13G22   30.39F WCI   7
FORT DRUM      NOT AVBL
MASSENA        SUNNY     20   3  48 SW22G30   30.34F WCI   3
SARANAC LAKE   SUNNY     17  -5  37 SW14G20   30.21F WCI   3
PLATTSBURGH    SUNNY     20   2  45 SE20      30.33F WCI   4
$$

NYZ001>004-010>016-019>021-062100-
WEST


CITY           SKY/WX    TMP DP  RH WIND       PRES   REMARKS
NIAGARA FALLS  PTSUNNY   19   7  59 SW24G32   30.36F WCI   2
BUFFALO        PTSUNNY   19   6  57 SW20G28   30.36F WCI   3
DUNKIRK        MOSUNNY   21   8  57 W8        30.38F WCI  11
JAMESTOWN      SUNNY     19   3  49 SW8       30.28F WCI   9
WELLSVILLE     SUNNY     21  -3  35 W9        30.26F WCI  11
ROCHESTER      PTSUNNY   23   0  36 SW12      30.37F WCI  12
PENN YAN       SUNNY     22   0  38 S9        30.34F WCI  12
$$

             KEY
       WCI = WIND CHILL INDEX
       VSB = VISIBILITY
       HX  = HEAT INDEX
$$


USA.gov is the U.S. government's official web portal to all federal, state and local government web resources and services.